[[{"header":{"parameterUnit":"m.s-1","parameterCategory":1,"la1":30.2991,"la2":30.254,"lo1":-89.0895,"lo2":-89.0444,"dy":0.0017,"dx":0.0017,"nx":28,"ny":28,"refTime":"2024-11-22T03:00:00:Z","depth":0,"parameterNumber":2,"parameterNumberName":"U-component_of_WINDS"},"data":[0,0,0,0,0,0,0,0,0,0,0,0,0,0,0,0,0,0,0,0,0,0,0,0,0,0,0,0,0,0,0,0,0,0,0,0,0,0,0,0,0,0,0,0,0,0,0,0,0,0,0,0,0,0,0,0,0,0,2.0182,2.0181,0,2.015,2.0149,2.0149,2.0069,2.0067,2.0066,2.0064,2.0034,2.0034,2.0035,0,0,0,0,0,0,0,0,0,0,0,0,0,2.0178,2.0178,2.0182,2.0181,2.0181,2.015,2.0149,2.0149,2.0069,2.0067,2.0065,2.0063,2.0033,2.0034,2.0035,0,0,0,0,0,0,0,0,0,0,0,0,0,2.0166,2.0178,2.0182,2.0137,2.0133,2.015,2.0149,2.0149,2.007,2.0067,2.0065,2.0062,2.0033,2.0034,2.0035,2.0093,0,0,2.0039,2.0039,0,0,0,0,0,0,0,0,2.0167,2.0166,2.0144,2.0141,2.0136,2.0111,2.0136,2.013,2.007,2.0094,2.0064,2.0061,2.0061,2.006,2.006,2.0092,2.009,2.0039,2.004,2.004,2.004,0,0,0,0,0,0,0,2.0168,2.0167,2.0169,2.0144,2.0139,2.012,2.0116,2.0135,2.0092,2.0092,2.0086,2.0083,2.0059,2.0059,2.0058,2.009,2.0039,2.004,2.0041,2.0041,2.0168,2.0171,0,0,0,0,0,0,2.0175,2.0168,2.017,2.0168,2.0145,2.0122,2.0117,2.0121,2.0092,2.0085,2.0085,2.0079,2.0058,2.0057,2.0057,2.0123,2.004,2.0041,2.0042,2.0166,2.0169,2.0172,0,0,0,0,0,0,2.0175,2.0175,2.0171,2.0167,2.0165,2.0125,2.013,2.0122,2.0122,2.0087,2.0079,2.0093,2.0056,2.0055,2.0085,2.012,2.0042,2.0043,2.0163,2.0167,2.017,2.0255,0,0,0,0,0,0,2.0175,2.0176,2.0197,2.0168,2.0165,2.0199,2.0132,2.0123,2.0124,2.0116,2.0092,2.0086,2.0054,2.0083,2.0086,2.0121,2.0044,2.0159,2.0164,2.0169,2.0248,2.0261,2.0272,0,0,0,0,0,2.0175,2.0222,2.0198,2.0199,2.019,2.0201,2.02,2.0161,2.0127,2.0148,2.0126,2.0087,2.0117,2.0087,2.0089,2.0125,2.0157,2.0163,2.0169,2.0243,2.0259,2.0272,0,0,0,0,0,0,2.0257,2.0217,2.019,2.0229,2.0219,2.0187,2.0213,2.0179,2.0179,2.0171,2.0125,2.012,2.0156,2.0143,2.0111,2.018,2.013,2.0137,2.0186,2.02,2.0212,2.0214,2.0045,0,0,0,0,0,2.028,2.0291,2.0256,2.0294,2.029,2.0253,2.0256,2.0227,2.0215,2.0211,2.019,2.0181,2.0188,2.0194,2.0198,2.0247,2.0241,2.0273,2.0284,2.0294,2.03,2.0325,2.0339,2.0192,2.0192,2.0192,0,0,2.0326,2.0306,2.0316,2.031,2.0298,2.0312,2.0249,2.0266,2.0276,2.0213,2.0239,2.0225,2.0211,2.025,2.0266,2.0241,2.034,2.0302,2.031,2.031,2.0333,2.0347,2.0359,2.0196,2.0195,2.0194,0,0,2.0418,2.0404,2.0433,2.0424,2.0407,2.0382,2.039,2.0363,2.0351,2.0376,2.033,2.0341,2.0355,2.0347,2.0345,2.0435,2.0399,2.0439,2.0499,2.0524,2.0536,2.0546,2.0578,2.059,2.0445,2.0445,2.0445,0,2.0478,2.0495,2.0453,2.0473,2.0472,2.0416,2.0446,2.0439,2.0426,2.0427,2.0398,2.0414,2.0401,2.0438,2.046,2.046,2.0468,2.044,2.0537,2.0547,2.0556,2.0586,2.0598,2.045,2.0449,2.0449,2.0448,0,2.057,2.0583,2.061,2.0597,2.0599,2.0625,2.0587,2.0595,2.0567,2.0545,2.0572,2.0555,2.0555,2.0562,2.0535,2.0596,2.058,2.0545,2.0495,2.0575,2.0603,2.0614,2.0457,2.0455,2.0454,2.0453,0,0,2.0711,2.0676,2.0686,2.068,2.0658,2.0668,2.0692,2.0691,2.0698,2.0692,2.071,2.0724,2.0691,2.0689,2.0661,2.0683,2.0756,2.0646,2.0645,2.0666,2.0822,2.0847,2.0861,2.0733,2.0735,2.0736,2.0823,0,2.0797,2.0833,2.0797,2.0841,2.0853,2.08,2.0821,2.0811,2.0792,2.08,2.0779,2.0789,2.0746,2.0744,2.0764,2.0743,2.0787,2.0737,2.075,2.0751,2.0754,2.0876,2.0903,2.0985,2.0833,2.0835,2.0836,0,2.0901,2.0898,2.0944,2.092,2.0923,2.0942,2.0939,2.0948,2.0936,2.092,2.0919,2.0885,2.0907,2.0859,2.0889,2.0856,2.086,2.085,2.0853,2.0852,2.0798,2.0878,2.101,2.1022,2.0853,2.0852,2.085,0,2.0999,2.1007,2.1035,2.1031,2.1004,2.1019,2.1009,2.0994,2.0996,2.0994,2.0996,2.0997,2.0998,2.1,2.0968,2.0935,2.1002,2.0951,2.0991,2.0992,2.1006,2.1005,2.1141,2.101,2.101,2.101,2.101,0,2.1098,2.1127,2.1078,2.1095,2.1128,2.1087,2.112,2.1104,2.1092,2.1106,2.1062,2.1076,2.1033,2.1043,2.1018,2.1047,2.1048,2.1037,2.103,2.104,2.1042,2.1041,2.1034,2.1013,2.1012,2.1012,2.1011,0,2.1211,2.118,2.1207,2.1179,2.1173,2.1198,2.1175,2.119,2.1169,2.1187,2.1189,2.1156,2.1166,2.1134,2.1139,2.1123,2.1165,2.1149,2.1169,2.1164,2.1205,2.1201,2.1344,2.136,2.1221,2.1222,2.1223,0,2.1276,2.1297,2.1272,2.1278,2.127,2.128,2.1282,2.1244,2.1248,2.1236,2.1253,2.1259,2.1262,2.128,2.1257,2.1261,2.1244,2.1294,2.1245,2.1255,2.1245,2.1243,2.1245,2.1304,2.1306,2.1307,2.1309,0,2.1394,2.1378,2.1382,2.1381,2.1385,2.1383,2.1378,2.1386,2.1344,2.1351,2.136,2.1362,2.1367,2.1374,2.1373,2.1364,2.133,2.1325,2.1334,2.1344,2.1355,2.1349,2.1196,2.1321,2.132,2.1319,2.1318,2.1318,2.1485,2.1502,2.1486,2.1493,2.1485,2.1482,2.1495,2.1475,2.1482,2.1482,2.1459,2.1474,2.1462,2.1457,2.1451,2.1462,2.1439,2.1453,2.1456,2.146,2.1466,2.1354,2.1462,2.1462,2.1461,2.1461,2.1461,0,2.16,2.1588,2.1595,2.1589,2.1594,2.1561,2.1554,2.1562,2.1574,2.1566,2.1569,2.1581,2.1587,2.1565,2.1569,2.1582,2.1567,2.1584,2.1583,2.1581,2.1487,2.1478,2.1597,2.1597,2.1597,2.1597,2.1597,2.1597,2.166,2.1687,2.1669,2.1692,2.168,2.1693,2.1692,2.1689,2.1682,2.1696,2.1701,2.1686,2.1673,2.1675,2.1681,2.1674,2.1677,2.17,2.1689,2.1601,2.1588,2.1575,2.1566,2.1702,2.1702,2.1781,2.1782,2.1783]},{"header":{"parameterUnit":"m.s-1","parameterCategory":1,"la1":30.2991,"la2":30.254,"lo1":-89.0895,"lo2":-89.0444,"dy":0.0017,"dx":0.0017,"nx":28,"ny":28,"refTime":"2024-11-22T03:00:00:Z","depth":0,"parameterNumber":3,"parameterNumberName":"V-component_of_WINDS"},"data":[0,0,0,0,0,0,0,0,0,0,0,0,0,0,0,0,0,0,0,0,0,0,0,0,0,0,0,0,0,0,0,0,0,0,0,0,0,0,0,0,0,0,0,0,0,0,0,0,0,0,0,0,0,0,0,0,0,0,-4.2878,-4.288,0,-4.3057,-4.3059,-4.3061,-4.3056,-4.3054,-4.3052,-4.3049,-4.3231,-4.3238,-4.3245,0,0,0,0,0,0,0,0,0,0,0,0,0,-4.2529,-4.2535,-4.2877,-4.288,-4.2882,-4.3056,-4.3059,-4.3061,-4.3057,-4.3054,-4.3051,-4.3048,-4.3228,-4.3237,-4.3245,0,0,0,0,0,0,0,0,0,0,0,0,0,-4.2691,-4.2537,-4.2877,-4.2901,-4.2905,-4.3056,-4.3059,-4.3062,-4.3058,-4.3054,-4.305,-4.3047,-4.3226,-4.3236,-4.3246,-4.3385,0,0,-4.3279,-4.3284,0,0,0,0,0,0,0,0,-4.2682,-4.2704,-4.2895,-4.2899,-4.2904,-4.3031,-4.3003,-4.317,-4.3058,-4.2999,-4.3049,-4.3045,-4.3167,-4.3182,-4.3224,-4.3394,-4.3402,-4.328,-4.3286,-4.3291,-4.3294,0,0,0,0,0,0,0,-4.2671,-4.2696,-4.2948,-4.2898,-4.2903,-4.2902,-4.2921,-4.3034,-4.3101,-4.3004,-4.3004,-4.3026,-4.3169,-4.3214,-4.3228,-4.3404,-4.328,-4.3289,-4.3296,-4.33,-4.3696,-4.3699,0,0,0,0,0,0,-4.2655,-4.2687,-4.2943,-4.2954,-4.2782,-4.2911,-4.2932,-4.2994,-4.31,-4.3113,-4.3029,-4.3025,-4.3197,-4.3216,-4.3234,-4.3403,-4.3291,-4.3301,-4.3307,-4.3691,-4.3696,-4.3701,0,0,0,0,0,0,-4.2647,-4.2678,-4.2935,-4.2821,-4.2853,-4.2921,-4.299,-4.2999,-4.3044,-4.3119,-4.313,-4.3062,-4.3195,-4.3219,-4.3348,-4.3409,-4.3306,-4.3315,-4.3687,-4.3693,-4.3699,-4.3741,0,0,0,0,0,0,-4.2637,-4.2675,-4.2729,-4.2822,-4.2859,-4.3047,-4.2994,-4.3005,-4.3063,-4.3059,-4.3153,-4.3165,-4.3194,-4.3332,-4.3358,-4.3422,-4.3324,-4.3681,-4.3689,-4.3697,-4.3735,-4.3748,-4.376,0,0,0,0,0,-4.2625,-4.2734,-4.2732,-4.2763,-4.2929,-4.305,-4.3072,-4.3103,-4.3068,-4.3122,-4.317,-4.3162,-4.3398,-4.3345,-4.3375,-4.3442,-4.3678,-4.3687,-4.3696,-4.3729,-4.3746,-4.376,0,0,0,0,0,0,-4.2647,-4.2747,-4.2745,-4.2888,-4.2961,-4.3049,-4.3119,-4.312,-4.3203,-4.3197,-4.3231,-4.3253,-4.3381,-4.3425,-4.3363,-4.3582,-4.3533,-4.3549,-4.3548,-4.3565,-4.3577,-4.3563,-4.3333,0,0,0,0,0,-4.2668,-4.2759,-4.2841,-4.2959,-4.2996,-4.3051,-4.3105,-4.3123,-4.3199,-4.323,-4.3287,-4.3361,-4.3452,-4.3511,-4.3598,-4.3741,-4.3761,-4.3803,-4.3815,-4.3825,-4.3838,-4.3915,-4.3934,-4.3731,-4.3731,-4.3731,0,0,-4.2713,-4.2779,-4.2834,-4.2965,-4.3023,-4.3116,-4.3077,-4.3177,-4.3246,-4.3245,-4.3369,-4.3414,-4.3499,-4.3635,-4.3697,-4.3675,-4.3898,-4.3837,-4.3844,-4.3852,-4.3927,-4.3946,-4.3963,-4.3738,-4.3737,-4.3736,0,0,-4.2842,-4.2902,-4.3005,-4.3065,-4.3154,-4.319,-4.3215,-4.3304,-4.3333,-4.3459,-4.346,-4.3542,-4.3698,-4.3758,-4.3808,-4.3959,-4.3955,-4.3987,-4.4052,-4.4127,-4.4143,-4.4157,-4.421,-4.4228,-4.3999,-4.4,-4.4,0,-4.2886,-4.3027,-4.3059,-4.3159,-4.3216,-4.322,-4.3325,-4.3381,-4.3494,-4.3532,-4.3506,-4.3701,-4.3758,-4.3907,-4.3944,-4.3986,-4.4014,-4.3976,-4.4138,-4.4153,-4.4166,-4.4217,-4.4237,-4.4003,-4.4002,-4.4002,-4.4002,0,-4.3076,-4.3173,-4.3246,-4.3356,-4.3421,-4.3523,-4.3569,-4.3631,-4.3643,-4.3682,-4.3809,-4.3878,-4.3979,-4.4016,-4.4028,-4.4167,-4.415,-4.4131,-4.4083,-4.4188,-4.4236,-4.4256,-4.4007,-4.4006,-4.4005,-4.4004,0,0,-4.3224,-4.3349,-4.3375,-4.3424,-4.3522,-4.3598,-4.3699,-4.3799,-4.385,-4.3928,-4.4013,-4.4145,-4.4127,-4.4185,-4.4204,-4.427,-4.4384,-4.4243,-4.4245,-4.4265,-4.4539,-4.4552,-4.4574,-4.4382,-4.4386,-4.4389,-4.4531,0,-4.3362,-4.3543,-4.3574,-4.3733,-4.3822,-4.3827,-4.3915,-4.3984,-4.4023,-4.4104,-4.4146,-4.4238,-4.4209,-4.4243,-4.4309,-4.4356,-4.4439,-4.4346,-4.446,-4.4464,-4.4438,-4.4599,-4.4613,-4.4744,-4.455,-4.4553,-4.4556,0,-4.3548,-4.363,-4.3797,-4.3882,-4.3921,-4.4,-4.4093,-4.417,-4.4249,-4.4272,-4.4336,-4.4347,-4.4452,-4.44,-4.4543,-4.448,-4.4528,-4.4558,-4.4564,-4.4575,-4.4515,-4.4613,-4.4787,-4.4806,-4.4586,-4.4583,-4.4581,0,-4.3637,-4.3789,-4.3909,-4.3951,-4.4054,-4.4109,-4.4154,-4.4229,-4.4286,-4.4367,-4.4404,-4.4496,-4.4546,-4.4617,-4.4652,-4.4611,-4.4793,-4.4744,-4.4814,-4.4813,-4.4851,-4.4848,-4.5034,-4.4885,-4.4884,-4.4884,-4.4884,0,-4.3787,-4.3889,-4.395,-4.4023,-4.4137,-4.4172,-4.4283,-4.4327,-4.4393,-4.4474,-4.4484,-4.456,-4.4603,-4.4684,-4.4713,-4.4827,-4.485,-4.487,-4.4876,-4.4869,-4.4866,-4.49,-4.4892,-4.4889,-4.4888,-4.4887,-4.4886,0,-4.3906,-4.3951,-4.4081,-4.4168,-4.4192,-4.4271,-4.4345,-4.4416,-4.4454,-4.4556,-4.4582,-4.4642,-4.4739,-4.4781,-4.49,-4.4919,-4.5049,-4.5049,-4.5023,-4.5024,-4.5091,-4.5084,-4.5305,-4.5335,-4.5166,-4.5168,-4.5169,0,-4.3998,-4.4076,-4.4171,-4.4226,-4.4273,-4.4362,-4.4421,-4.4457,-4.4518,-4.4612,-4.4671,-4.4768,-4.4848,-4.5002,-4.5055,-4.5146,-4.5147,-4.5219,-4.5161,-4.5151,-4.5147,-4.5141,-4.5149,-4.5229,-4.523,-4.5232,-4.5233,0,-4.4157,-4.4175,-4.4259,-4.4352,-4.4421,-4.4495,-4.4568,-4.4612,-4.466,-4.4727,-4.4827,-4.4888,-4.501,-4.5105,-4.5199,-4.5245,-4.5247,-4.5251,-4.5271,-4.5264,-4.5245,-4.5255,-4.505,-4.5245,-4.5244,-4.5243,-4.5242,-4.5242,-4.4265,-4.4334,-4.4411,-4.4504,-4.4563,-4.463,-4.47,-4.4747,-4.4831,-4.4933,-4.4949,-4.5055,-4.513,-4.5256,-4.5305,-4.5387,-4.537,-4.54,-4.5408,-4.5414,-4.5418,-4.5233,-4.5405,-4.5404,-4.5404,-4.5404,-4.5404,0,-4.4423,-4.4472,-4.4558,-4.4659,-4.4732,-4.4728,-4.4808,-4.4869,-4.4962,-4.5032,-4.511,-4.5223,-4.5315,-4.5376,-4.5469,-4.5523,-4.5527,-4.5547,-4.5542,-4.5552,-4.5429,-4.5401,-4.5542,-4.5542,-4.5542,-4.5542,-4.5542,-4.5542,-4.4513,-4.463,-4.4657,-4.4802,-4.4852,-4.4955,-4.5001,-4.5062,-4.5118,-4.5245,-4.5322,-4.5361,-4.5427,-4.5525,-4.5609,-4.5625,-4.5658,-4.5679,-4.5693,-4.5576,-4.5561,-4.5548,-4.5521,-4.5686,-4.5686,-4.581,-4.5811,-4.5812]}]]